Other Public Products
Issued by NWS Grand Forks, ND

Home | Current Version | Previous Version | Graphics & Text | Print | Product List | Glossary On
Versions: 1 2 3 4 5 6 7 8 9 10 11 12 13 14 15 16 17 18 19 20 21 22 23 24 25 26 27 28 29 30 31 32 33 34 35 36 37 38 39 40 41 42 43 44 45 46 47 48 49 50
000
FPUS83 KFGF 012310
OPUFGF
PRAIRIE TO PINES WEATHER ROUNDUP
NATIONAL WEATHER SERVICE EASTERN NORTH DAKOTA/GRAND FORKS ND
600 PM CDT SAT AUG 01 2015

 **SATELLITE DATA USED TO AUGMENT SKY COVER AT AUTOMATED STATIONS**
 *****  WEATHER ACROSS EASTERN NORTH DAKOTA  *****

CITY           SKY/WX    TMP DP  RH WIND       PRES   REMARKS
GRAND FORKS    MOSUNNY   85  61  44 S10       29.74F
GRAND FORKS AF SUNNY     85  64  48 SW9       29.75F
GRAND CITY NWS NOT AVBL
BUXTON         NOT AVBL
DEVILS LAKE    SUNNY     88  52  29 SW7       29.76F
FARGO          SUNNY     87  61  41 SE10      29.76F
WAHPETON ARPT  CLEAR     84  63  48 SE9       29.77F
$$

 *****  WEATHER ACROSS CENTRAL AND WESTERN NORTH DAKOTA  *****

CITY           SKY/WX    TMP DP  RH WIND       PRES   REMARKS
JAMESTOWN      SUNNY     85  64  49 SE6       29.77F
BISMARCK       SUNNY     91  50  24 MISG      29.80F
MINOT          SUNNY     89  47  23 SW10      29.75F
MINOT AFB      SUNNY     90  52  27 S8        29.74F
GARRISON         N/A     84  58  40 S6        29.79F
WILLISTON      SUNNY    100  33   9 NW24G36   29.72F HX  94
DICKINSON      SUNNY     92  41  17 W16       29.80F
HETTINGER      SUNNY     93  34  12 SW6       29.87F
$$

 *****  OTHER OBSERVATIONS NORTHEAST NORTH DAKOTA  *****

CITY           SKY/WX    TMP DP  RH WIND       PRES   REMARKS
WALHALLA       FAIR      84  59  42 MISG      29.73F
LANGDON        FAIR      86  55  35 W13       29.77F
CAVALIER       FAIR      84  61  45 SW7       29.73F
GRAFTON        FAIR      86  59  39 SW10      29.74F
CANDO          NOT AVBL
FORT TOTTEN    NOT AVBL
ROLLA            N/A     81  61  50 NW6       29.78F
RUGBY          NOT AVBL
 ***** THE ABOVE OBSERVATIONS ARE NON NWS ARE NOT QUALITY
        CONTROLLED AND MAY MIS-REPORT RAIN FOR SNOW...
$$

 *****  OTHER OBSERVATIONS SOUTHEAST NORTH DAKOTA *****

CITY           SKY/WX    TMP DP  RH WIND       PRES   REMARKS
COOPERSTOWN    NOT AVBL
VALLEY CITY    FAIR      84  64  51 S8        29.78F
OAKES            N/A     90  72  55 N7        29.76F HX  96
GWINNER        FAIR      88  68  51 CALM      29.77F HX  91
BUFFALO        NOT AVBL
WYNDMERE         N/A     88  70  55 SE5         N/A  HX  92
 ***** THE ABOVE OBSERVATIONS ARE NON NWS ARE NOT QUALITY
       CONTROLLED AND MAY MIS-REPORT RAIN FOR SNOW...
$$

  *****  WEATHER ACROSS NORTHERN MINNESOTA  *****

CITY           SKY/WX    TMP DP  RH WIND       PRES   REMARKS
FLAG ISLAND    SUNNY     79  52  38 W13       29.70F
WARROAD        MOSUNNY   81  61  50 SW9       29.74F
ROSEAU         MOSUNNY   81  61  50 SW10      29.74F
HALLOCK        SUNNY     81  57  44 SW7       29.72F
THF RVR FALLS  SUNNY     81  57  44 S9        29.77F
HALSTAD        NOT AVBL
FOSSTON        SUNNY     82  57  42 SW8       29.79F
BAUDETTE       MOSUNNY   80  53  39 W12       29.74F
WASKISH        MOSUNNY   77  61  57 SW7       29.77F
CROOKSTON      SUNNY     82  61  47 SW9       29.76F
$$
  *****  WEATHER ACROSS CENTRAL AND WEST MINNESOTA  *****

CITY           SKY/WX    TMP DP  RH WIND       PRES   REMARKS
BEMIDJI        SUNNY     80  56  43 SW9       29.79F
PARK RAPIDS    SUNNY     83  54  36 SW10      29.81F
WADENA         MOSUNNY   82  57  42 S7        29.81F
DETROIT LAKES  MOSUNNY   81  55  41 S8        29.81F
MOORHEAD       SUNNY     84  61  45 S8        29.77F
FERGUS FALLS   SUNNY     82  66  57 S10       29.77F
ELBOW LAKE     FAIR      83  68  62 SE8       29.79F
MORRIS MN      SUNNY     86  66  51 SW14      29.78F
STAPLES        MOSUNNY   81  57  44 S8        29.82F
WHEATON        MOSUNNY   84  68  58 SW7       29.77F
$$
  *****  WEATHER ELSEWHERE ACROSS MINNESOTA  *****

CITY           SKY/WX    TMP DP  RH WIND       PRES   REMARKS
DULUTH         MOSUNNY   80  52  37 W16       29.81F
INTRNTL FALLS  SUNNY     79  55  43 W9        29.73F
ELY            SUNNY     79  45  29 W14       29.77F
CLOQUET        MOSUNNY   81  48  32 W7        29.82F
BRAINERD       MOSUNNY   81  55  40 S13       29.82F
HIBBING        SUNNY     80  50  34 W9        29.79F
ALEXANDRIA     SUNNY     83  66  56 S12       29.83F
SAINT CLOUD    SUNNY     82  64  54 S8        29.81F
MINNEAPOLIS    MOSUNNY   85  63  47 S8        29.83F
$$

  *****  WEATHER ACROSS SOUTH DAKOTA  *****

CITY           SKY/WX    TMP DP  RH WIND       PRES   REMARKS
SIOUX FALLS    MOSUNNY   84  62  47 VRB6      29.87F
BROOKINGS      SUNNY     84  64  51 SW16      29.87F
WATERTOWN      SUNNY     85  61  44 SW15G24   29.82F
HURON          SUNNY     88  65  46 SW10      29.79F HX  90
SISSETON         N/A     89  63  41 W12       29.75F HX  90
ABERDEEN       SUNNY     92  66  42 S8        29.74F HX  94
MITCHELL       SUNNY     87  62  43 SW9       29.84F
PIERRE         SUNNY     92  60  34 SW20G29   29.80F HX  91
MOBRIDGE       SUNNY     94  51  23 NW9       29.78F HX  91
RAPID CITY     SUNNY     92  47  21 S3        29.94F
$$

  *****  SOME WEATHER IN NEARBY STATES *****

CITY           SKY/WX    TMP DP  RH WIND       PRES   REMARKS
GLASGOW MT     SUNNY     97  32  10 NW24G31   29.79F HX  91
GREAT FALLS MT SUNNY     97  18   6 W13       29.92F HX  90
CHEYENNE WY    MOSUNNY   87  40  19 SE7       30.14F
SCOTTSBLUFF NE MOSUNNY   93  51  23 NE9       29.97F HX  90
OMAHA NE       PTSUNNY   85  67  54 SE9       29.92F
DES MOINES IA  PTSUNNY   87  69  54 W7        29.92S HX  91
DAVENPORT IA   PTSUNNY   82  66  58 W7        29.94F
CHICAGO IL     PTSUNNY   84  60  44 W18G24    29.90F
EAU CLAIRE WI  MOSUNNY   83  59  44 SW9       29.86F
LA CROSSE WI   SUNNY     86  60  41 W6        29.87F
$$

  *****  SOME NATIONAL WEATHER *****

CITY           SKY/WX    TMP DP  RH WIND       PRES   REMARKS
LA GUARDIA NY  MOSUNNY   85  57  38 NW13G20   29.77S
RALEIGH NC     MOSUNNY   89  60  37 E6        29.88S
ATLANTA GA     MOSUNNY   88  63  43 E8        29.92F
NEW ORLEANS LA MOSUNNY   92  67  43 NE9       29.87S HX  95
OKLAHOMA CITY  PTSUNNY   88  67  49 S12       29.98F HX  91
ALBUQUERQUE NM PTSUNNY   87  50  27 NW6       30.13F
SALT LAKE CITY PTSUNNY   94  31  10 VRB7      30.02F
LOS ANGELES CA MOSUNNY   75  63  66 W12       29.91F
BOISE ID       SUNNY    102  36  10 N8        29.92F HX  96
SEATTLE WA     MOSUNNY   91  48  22 N10       29.95F
$$

*** WEATHER ACROSS MANITOBA...SASKATCHEWAN AND ONTARIO ***
                ***ONTARIO***

CITY           SKY/WX    TMP DP  RH WIND       PRES   REMARKS
GERALDTON      NOT AVBL
THUNDER BAY    PTSUNNY   75  54  46 W8        29.70F
SIOUX LOOKOUT  PTSUNNY   63  59  88 W6        29.69F
TORONTO        MOSUNNY   77  50  38 NW16G22   29.80S
BIG TROUT LK   PTSUNNY   63  45  51 NW15G30   29.48R
PICKLE LAKE    LGT RAIN  57  54  88 W12       29.60F
DRYDEN         CLOUDY    72  54  53 W14G23    29.70F
KENORA         PTSUNNY   72  59  64 N2        29.72F
$$
                *** MANITOBA***

CITY           SKY/WX    TMP DP  RH WIND       PRES   REMARKS
BRANDON        PTSUNNY   81  61  50 W10G18    29.73F
DAUPHIN        SUNNY     73  63  68 NE6       29.74S
ISLAND LAKE    PTSUNNY   68  43  40 NW20G26   29.59S
PILOT MOUND      N/A     82  57  42 W8          N/A
THE PAS        MOSUNNY   72  48  43 N13G18    29.73F
THOMPSON       LGT RAIN  63  48  59 N10G17    29.65R
WINNIPEG       PTSUNNY   79  59  50 SW10      29.70F
LYNN LAKE      MOSUNNY   68  39  34 NW22G31   29.72F
CHURCHILL      CLOUDY    48  46  93 N20       29.53R FOG
GILLAM         LGT RAIN  54  50  87 NW15G23   29.55S
$$
                ***SASKATCHEWAN***

CITY           SKY/WX    TMP DP  RH WIND       PRES   REMARKS
ESTEVAN        MOSUNNY   91  48  22 S8        29.71F
KINDERSLEY     MOSUNNY   79  50  36 N10G18    29.93S
LLOYDMINSTER   PTSUNNY   73  50  43 NW21G29   29.93S
PRINCE ALBERT  LGT RAIN  66  57  72 N15       29.83S
REGINA         MOSUNNY   79  54  41 N23G31    29.83S
YORKTON        SUNNY     72  59  64 NW10      29.79F



USA.gov is the U.S. government's official web portal to all federal, state and local government web resources and services.